NU3S-7 Weather Reports


time (UTC)temp
C
wind
direction
speed
KPH
gust
KPH
rain 1hr
cm
rain 24hr
cm
rain mn
cm
humidity
%
barometer
mb
20260503173349 12 294 6.4 20.9 0.00 0.00 0.00 60 1016.2
20260503130325 6 293 4.8 9.7 0.00 0.00 0.00 92 1018.1
20260503110317 1 0 0.0 0.0 0.00 0.00 0.00 100 1017.0
20260503090307 0 0 0.0 0.0 0.00 0.00 0.00 100 1016.4
20260503081303 1 0 0.0 0.0 0.00 0.00 0.00 100 1016.2
20260503080302 1 0 0.0 0.0 0.00 0.00 0.00 100 1016.3
20260503072300 1 0 0.0 0.0 0.00 0.00 0.00 100 1016.1
20260503071300 1 0 0.0 0.0 0.00 0.00 0.00 100 1016.0
20260503070259 1 0 0.0 0.0 0.00 0.00 0.00 100 1016.0
20260503060257 1 0 0.0 0.0 0.00 0.00 0.00 100 1016.2
20260503054327 1 0 0.0 0.0 0.00 0.00 0.00 99 1016.2
20260503054256 1 0 0.0 0.0 0.00 0.00 0.00 99 1016.2
20260503053256 1 0 0.0 0.0 0.00 0.00 0.00 99 1016.2
20260503051255 1 0 0.0 0.0 0.00 0.00 0.00 99 1016.2
20260503045254 2 0 0.0 0.0 0.00 0.00 0.00 98 1016.3
20260503044254 2 0 0.0 0.0 0.00 0.00 0.00 98 1016.2
20260503035252 2 0 0.0 0.0 0.00 0.00 0.00 97 1016.2
20260503033251 2 0 0.0 0.0 0.00 0.00 0.00 97 1016.2
20260503025250 3 0 0.0 0.0 0.00 0.00 0.00 95 1016.3
20260503024248 3 0 0.0 0.0 0.00 0.00 0.00 95 1016.3
20260503020506 4 0 0.0 0.0 0.00 0.00 0.00 93 1016.4
20260503015246 4 0 0.0 0.0 0.00 0.00 0.00 93 1016.4
20260503014246 4 0 0.0 0.0 0.00 0.00 0.00 93 1016.3
20260503013333 5 0 0.0 0.0 0.00 0.00 0.00 93 1016.3
20260503012240 4 0 0.0 0.0 0.00 0.00 0.00 93 1016.4
20260503010239 5 0 0.0 0.0 0.00 0.00 0.00 91 1016.3
20260503005238 5 0 0.0 0.0 0.00 0.00 0.00 90 1016.2
20260503004252 5 0 0.0 0.0 0.00 0.00 0.00 89 1016.2
20260503003237 5 0 0.0 0.0 0.00 0.00 0.00 89 1016.0
20260503002237 5 49 1.6 4.8 0.00 0.00 0.00 88 1016.0
20260502235236 5 336 1.6 11.3 0.00 0.00 0.00 87 1015.8
20260502234237 5 352 3.2 8.0 0.00 0.00 0.00 87 1015.6
20260502233235 5 332 1.6 6.4 0.00 0.00 0.00 87 1015.6
20260502232234 5 353 4.8 16.1 0.00 0.00 0.00 87 1015.5
20260502231234 6 31 1.6 6.4 0.00 0.00 0.00 88 1015.5
20260502230245 5 304 4.8 14.5 0.00 0.00 0.00 89 1015.6
20260502225232 5 345 6.4 14.5 0.00 0.00 0.00 90 1015.6
20260502222244 6 347 4.8 11.3 0.00 0.00 0.00 90 1015.4
20260502221230 6 346 6.4 16.1 0.00 0.00 0.00 89 1015.4
20260502220235 6 7 6.4 12.9 0.00 0.00 0.00 89 1015.3
20260502215238 6 350 1.6 9.7 0.00 0.00 0.00 89 1015.3
20260502213251 6 347 6.4 14.5 0.00 0.00 0.00 88 1015.3
20260502212347 6 342 6.4 14.5 0.00 0.00 0.00 88 1015.1
20260502210257 6 342 6.4 25.7 0.00 0.00 0.00 87 1015.1
20260502210226 6 342 6.4 25.7 0.00 0.00 0.00 87 1015.1
20260502205258 6 349 3.2 9.7 0.00 0.00 0.00 87 1015.1
20260502205226 6 349 3.2 9.7 0.00 0.00 0.00 87 1015.1
20260502203422 6 353 3.2 9.7 0.00 0.00 0.00 88 1015.0
20260502203225 6 353 3.2 9.7 0.00 0.00 0.00 88 1015.0
20260502202223 6 354 9.7 22.5 0.00 0.00 0.00 87 1015.1
20260502201222 6 359 8.0 14.5 0.00 0.00 0.00 89 1015.1
20260502200221 6 353 6.4 14.5 0.00 0.00 0.00 91 1015.2
20260502195228 6 340 6.4 14.5 0.00 0.00 0.00 92 1015.2
20260502194220 5 350 8.0 16.1 0.00 0.00 0.00 91 1015.3
20260502193229 6 7 8.0 17.7 0.00 0.00 0.00 92 1015.4
20260502192219 6 264 4.8 14.5 0.00 0.00 0.00 91 1015.3
20260502191219 6 326 4.8 12.9 0.00 0.00 0.00 90 1015.4
20260502190219 6 316 3.2 9.7 0.00 0.00 0.00 90 1015.5
20260502185217 6 53 3.2 9.7 0.00 0.00 0.00 90 1015.5
20260502184217 6 336 11.3 17.7 0.00 0.00 0.00 90 1015.5
20260502183217 7 345 4.8 16.1 0.00 0.00 0.00 92 1015.4
20260502182216 6 328 8.0 20.9 0.00 0.00 0.00 92 1015.5
20260502180215 6 323 8.0 17.7 0.00 0.00 0.00 94 1015.5